Weather History for Wenatchee, WA

Change the Weather History Date:

Friday, November 5, 2010

  Actual Average Record
Temperature  
Mean Temperature 43 °F 38 °F  
Max Temperature 49 °F 46 °F 58 °F (1989)
Min Temperature 37 °F 30 °F 14 °F (1973)
Degree Days  
Heating Degree Days 22 27  
Month to date heating degree days 91 131  
Since 1 July heating degree days 587 1087  
Cooling Degree Days 0 0  
Month to date cooling degree days 0 0  
Year to date cooling degree days 639 249  
Moisture  
Dew Point 40 °F    
Average Humidity 82    
Maximum Humidity 93    
Minimum Humidity 71    
Precipitation  
Precipitation 0.00 in 0.06 in 0.42 in (2005)
Month to date precipitation 0.06 0.29  
Year to date precipitation 12.63  
Snow  
Snow 0.00 in 0.00 in - ()
Month to date snowfall 0.2  
Since 1 July snowfall 0.3  
Since 1 September snowfall 0.3  
Snow Depth -    
Sea Level Pressure  
Sea Level Pressure 29.90 in    
Wind  
Wind Speed 3 mph (NE)    
Max Wind Speed 10 mph    
Max Gust Speed 13 mph    
Visibility 10 miles    
Events      
T = Trace of Precipitation, MM = Missing Value Source: NWS Daily Summary

Daily Weather History Graph

Daily Weather History Graph

Search for Another Location

Airport:

Trip Planner

Search our weather history database for the weather conditions in past years. The results will help you decide how hot, cold, wet, or windy it might be!

Date:

Astronomy

Nov. 05, 2010 Rise Set
Actual Time 7:50 AM PDT 5:37 PM PDT
Civil Twilight 7:18 AM PDT 6:10 PM PDT
Nautical Twilight 6:41 AM PDT 6:46 PM PDT
Astronomical Twilight 6:05 AM PDT 7:22 PM PDT
Moon 7:25 AM PDT (11/5) 4:59 PM PDT (11/5)
Length of Visible Light 10h 52m
Length of Day
9h 47m
Waning Crescent, 0% of the Moon is Illuminated
Nov 5
Waning Crescent
Nov 5
New
Nov 13
First Quarter
Nov 21
Full
Nov 28
Last Quarter

Hourly Weather History & Observations

Time (PDT) Temp. Windchill Dew Point Humidity Pressure Visibility Wind Dir Wind Speed Gust Speed Precip Events Conditions
12:55 AM 45.0 °F - 39.0 °F 80% 30.01 in 10.0 mi Calm Calm - N/A   Clear
1:55 AM 44.1 °F - 39.9 °F 85% 30.00 in 10.0 mi Calm Calm - N/A   Partly Cloudy
2:55 AM 43.0 °F 39.5 °F 39.9 °F 89% 29.99 in 10.0 mi WSW 5.8 mph - N/A   Clear
3:55 AM 42.1 °F 38.4 °F 37.9 °F 85% 29.96 in 10.0 mi WNW 5.8 mph - N/A   Clear
4:55 AM 42.1 °F 37.7 °F 37.9 °F 85% 29.94 in 10.0 mi NW 6.9 mph - N/A   Clear
5:55 AM 39.9 °F - 37.9 °F 93% 29.94 in 10.0 mi Calm Calm - N/A   Clear
6:55 AM 39.9 °F - 37.9 °F 93% 29.92 in 10.0 mi Calm Calm - N/A   Mostly Cloudy
7:55 AM 41.0 °F 38.0 °F 37.9 °F 89% 29.92 in 10.0 mi WNW 4.6 mph - N/A   Partly Cloudy
8:55 AM 39.9 °F - 37.9 °F 93% 29.93 in 10.0 mi Calm Calm - N/A   Clear
9:55 AM 42.1 °F - 39.0 °F 89% 29.92 in 10.0 mi Calm Calm - N/A   Clear
10:55 AM 46.0 °F - 41.0 °F 83% 29.91 in 10.0 mi Calm Calm - N/A   Clear
11:55 AM 46.9 °F - 39.9 °F 77% 29.90 in 10.0 mi Calm Calm - N/A   Clear
12:55 PM 46.9 °F - 41.0 °F 80% 29.88 in 10.0 mi Calm Calm - N/A   Clear
1:55 PM 48.0 °F - 39.9 °F 74% 29.86 in 10.0 mi East 4.6 mph - N/A   Clear
2:55 PM 48.9 °F - 42.1 °F 77% 29.84 in 10.0 mi ESE 4.6 mph - N/A   Clear
3:55 PM 48.9 °F - 41.0 °F 74% 29.84 in 10.0 mi ESE 5.8 mph - N/A   Clear
4:55 PM 48.0 °F - 42.1 °F 80% 29.84 in 10.0 mi ESE 5.8 mph - N/A   Clear
5:55 PM 46.9 °F - 42.1 °F 83% 29.84 in 10.0 mi ESE 3.5 mph - N/A   Clear
6:55 PM 45.0 °F 43.5 °F 41.0 °F 86% 29.85 in 9.0 mi ENE 3.5 mph - N/A   Clear
7:55 PM 44.1 °F 41.5 °F 41.0 °F 89% 29.84 in 9.0 mi ENE 4.6 mph - N/A   Clear
8:55 PM 41.0 °F 39.0 °F 39.0 °F 93% 29.86 in 8.0 mi East 3.5 mph - N/A   Clear
9:55 PM 41.0 °F 39.0 °F 39.0 °F 93% 29.86 in 8.0 mi North 3.5 mph - N/A   Clear
10:55 PM 42.1 °F 40.2 °F 39.0 °F 89% 29.85 in 8.0 mi NW 3.5 mph - N/A   Clear
11:55 PM 39.0 °F 35.7 °F 37.0 °F 93% 29.85 in 5.0 mi ENE 4.6 mph - N/A   Clear